This is the latest recevied weather packets stored in our database for station/object VE1UHF-4. If no packets are shown the sender has not sent any weather packets the latest 10 day(s).
| Time | Temp. | Humidity | Pressure | Rain* | Wind** | Luminosity | Snow |
|---|---|---|---|---|---|---|---|
| 1777917781 | 18.33° C | 87% | 994.4 hPa | 0 mm | - | - | - |
| 1777915980 | 17.22° C | 88% | 993.8 hPa | 0 mm | - | - | - |
| 1777915079 | 16.67° C | 88% | 993.9 hPa | 0 mm | - | - | - |
| 1777914179 | 15.56° C | 88% | 993.9 hPa | 0 mm | - | - | - |
| 1777913278 | 15° C | 89% | 993.8 hPa | 0 mm | - | - | - |
| 1777910576 | 12.78° C | 89% | 993.2 hPa | 0 mm | - | - | - |
| 1777909676 | 12.22° C | 89% | 993.3 hPa | 0 mm | - | - | - |
| 1777908775 | 11.67° C | 89% | 992.8 hPa | 0 mm | - | - | - |
| 1777907875 | 10.56° C | 89% | 992.9 hPa | 0 mm | - | - | - |
| 1777906974 | 10° C | 89% | 992.8 hPa | 0 mm | - | - | - |
| 1777906074 | 9.44° C | 88% | 992.7 hPa | 0 mm | - | - | - |
| 1777905173 | 9.44° C | 88% | 992.4 hPa | 0 mm | - | - | - |
| 1777903372 | 8.89° C | 87% | 992.1 hPa | 0 mm | - | - | - |
| 1777901572 | 8.33° C | 87% | 991.4 hPa | 0 mm | - | - | - |
| 1777900670 | 7.78° C | 87% | 991.1 hPa | 0 mm | - | - | - |
| 1777899770 | 7.78° C | 87% | 990.9 hPa | 0 mm | - | - | - |
| 1777897969 | 7.22° C | 86% | 990.5 hPa | 0 mm | - | - | - |
| 1777897068 | 6.67° C | 86% | 990.3 hPa | 0 mm | - | - | - |
| 1777896168 | 6.67° C | 85% | 989.9 hPa | 0 mm | - | - | - |
| 1777895267 | 6.67° C | 86% | 989.7 hPa | 0 mm | - | - | - |
| 1777894366 | 6.11° C | 85% | 989.3 hPa | 0 mm | - | - | - |
| 1777893466 | 6.11° C | 85% | 988.8 hPa | 0 mm | - | - | - |
| 1777891665 | 5.56° C | 85% | 988.1 hPa | 0 mm | - | - | - |
| 1777890764 | 5.56° C | 85% | 987.7 hPa | 0 mm | - | - | - |
| 1777889864 | 5.56° C | 85% | 987.1 hPa | 0 mm | - | - | - |
* Rain since midnight (hover to see other rain measurements)
** Current wind speed in m/s (hover to see current wind gust speed)